Change the Weather History Date:

Friday, December 14, 2012

  Actual Average Record
Temperature  
Mean Temperature 29 °F 23 °F  
Max Temperature 38 °F 34 °F 60 °F (1924)
Min Temperature 20 °F 12 °F -29 °F (2008)
Degree Days  
Heating Degree Days 36 42  
Month to date heating degree days 489 571  
Since 1 July heating degree days 2402 2699  
Cooling Degree Days 0 0  
Month to date cooling degree days 0 0  
Year to date cooling degree days 314 210  
Moisture  
Dew Point 20 °F    
Average Humidity 67    
Maximum Humidity 81    
Minimum Humidity 52    
Precipitation  
Precipitation 0.00 in 0.02 in 0.90 in (1906)
Month to date precipitation 0.30 0.29  
Year to date precipitation 15.30 16.48  
Snow  
Snow 0.00 in - - ()
Snow Depth 1.00 in    
Sea Level Pressure  
Sea Level Pressure 29.70 in    
Wind  
Wind Speed 8 mph (SW)    
Max Wind Speed 22 mph    
Max Gust Speed 25 mph    
Visibility 10 miles    
Events      
T = Trace of Precipitation, MM = Missing Value Source: NWS Daily Summary

Daily Weather History Graph

Daily Weather History Graph

Search for Another Location

Airport or City:

Trip Planner

Search our weather history database for the weather conditions in past years. The results will help you decide how hot, cold, wet, or windy it might be!

Date:

Astronomy

Dec. 14, 2012 Rise Set
Actual Time 7:56 AM MST 4:28 PM MST
Civil Twilight 7:21 AM MST 5:04 PM MST
Nautical Twilight 6:42 AM MST 5:43 PM MST
Astronomical Twilight 6:05 AM MST 6:20 PM MST
Moon 9:00 AM MST (12/14) 6:30 PM MST (12/14)
Length of Visible Light 9h 43m
Length of Day
8h 32m
Waxing Crescent, 3% of the Moon is Illuminated
Dec 14
Waxing Crescent
Dec 19
First Quarter
Dec 28
Full
Jan 4
Last Quarter
Jan 11
New

Hourly Weather History & Observations

Time (MST) Temp. Windchill Dew Point Humidity Pressure Visibility Wind Dir Wind Speed Gust Speed Precip Events Conditions
12:54 AM 34.0 °F 22.7 °F 21.0 °F 59% 29.72 in 10.0 mi SW 19.6 mph - N/A   Clear
1:54 AM 32.0 °F 20.5 °F 21.0 °F 64% 29.72 in 10.0 mi SW 18.4 mph - N/A   Clear
2:54 AM 28.9 °F 17.7 °F 19.0 °F 67% 29.73 in 10.0 mi SW 15.0 mph - N/A   Clear
3:54 AM 28.0 °F 17.0 °F 18.0 °F 66% 29.73 in 10.0 mi SW 13.8 mph - N/A   Clear
4:54 AM 21.0 °F 8.6 °F 15.1 °F 78% 29.73 in 10.0 mi SW 12.7 mph - N/A   Clear
5:54 AM 27.0 °F 15.6 °F 17.1 °F 66% 29.71 in 10.0 mi SW 13.8 mph - N/A   Clear
6:54 AM 25.0 °F 19.3 °F 17.1 °F 72% 29.72 in 10.0 mi SSE 4.6 mph - N/A   Partly Cloudy
7:54 AM 30.9 °F 24.3 °F 19.9 °F 64% 29.70 in 10.0 mi WSW 6.9 mph - N/A   Clear
8:54 AM 28.0 °F 18.1 °F 19.0 °F 69% 29.72 in 10.0 mi SW 11.5 mph - N/A   Clear
9:54 AM 32.0 °F 28.7 °F 21.0 °F 64% 29.70 in 10.0 mi SSE 3.5 mph - N/A   Clear
10:54 AM - - - N/A% 29.62 in - North - - N/A   Unknown
11:54 AM - - - N/A% 29.60 in - North - - N/A   Unknown
12:54 PM - - - N/A% 29.60 in - North - - N/A   Unknown
1:54 PM 37.9 °F - 21.9 °F 53% 29.64 in 10.0 mi Calm Calm - N/A   Overcast
3:54 PM 33.1 °F 28.7 °F 25.0 °F 72% 29.68 in 10.0 mi SSW 4.6 mph - N/A   Overcast
4:54 PM 32.0 °F 27.5 °F 24.1 °F 73% 29.71 in 10.0 mi SSW 4.6 mph - N/A   Overcast
5:54 PM 33.1 °F 28.7 °F 24.1 °F 70% 29.71 in 10.0 mi SSW 4.6 mph - N/A   Overcast
6:54 PM 33.1 °F 28.7 °F 23.0 °F 66% 29.73 in 10.0 mi WSW 4.6 mph - N/A   Overcast
7:54 PM 30.9 °F 26.2 °F 21.9 °F 69% 29.73 in 10.0 mi WSW 4.6 mph - N/A   Overcast
8:54 PM 28.9 °F 20.4 °F 19.9 °F 69% 29.75 in 10.0 mi SW 9.2 mph - N/A   Overcast
9:54 PM 28.0 °F 20.8 °F 21.0 °F 75% 29.76 in 10.0 mi West 6.9 mph - N/A   Overcast
10:54 PM 27.0 °F 23.0 °F 21.0 °F 78% 29.69 in 10.0 mi WNW 3.5 mph - N/A   Overcast
11:54 PM 27.0 °F - 19.0 °F 72% 29.71 in 10.0 mi Calm Calm - N/A   Overcast